TRANSPORTER-15 C (66668 NORAD) Tracking and Keplerian Element Data

This shows tracking and keplerian element data for the satellite.

Feedback or suggestion? Click here.




ElementValue
Catalog66668
NameTRANSPORTER-15 C
Epoch Orbit323
Epoch Day354.06866483
Epoch Year2025
RAAN65.6486
Inclination97.4291
Eccentricity0.0007711
Argument of Perigee277.9285
Mean Anonmoly82.1073
Mean Motion15.17054823
Decay Rate0.0001377
L11 66668U 25276C 25354.06866483 .00013770 00000+0 69791-3 0 9996
L22 66668 97.4291 65.6486 0007711 277.9285 82.1073 15.17054823 3232



Live tracking and technical data element details for TRANSPORTER-15 C (NORAD 66668). TRANSPORTER-15 C can be tracked NOW for your location showing map with azimuth and elevation plus other details from your city location.







IsCatalogInMostPopularTable: catalog: 66668, numindb: 18
Update: records affected: 1



GetName: 66668 TRANSPORTER-15 C

Hit Count: updated at: Mon, 20 Apr 2026 09:35:59 GMT